C/2022 W3 ( Leonard )

Japanese version
Home page
Updated on March 26, 2023

---------------------------------------------------------------------

* Profile

Discovery Date November 26, 2022
Magnitude 19.7 mag
Discoverer Gregory J. Leonard (Mount Lemmon Survey)

* Pictures

* Orbital Elements

Epoch 2023 Feb. 25.0 TT = JDT 2460000.5
T 2023 June 22.77702 TT                                 Rudenko
q   1.3976926            (2000.0)            P               Q
z  +0.0035650      Peri.  116.52210     +0.45557773     +0.52436118
 +/-0.0000063      Node   132.26910     -0.51971874     -0.49941133
e   0.9950172      Incl.  103.55860     +0.72273187     -0.68966200
>From 295 observations 2022 Nov. 13-2023 Mar. 5, mean residual 0".7.

* Finding Charts

* Magnitudes Graph

        m1 = 12.0 + 5 log d + 10.0 log r

---------------------------------------------------------------------

The orbital elements are published on M.P.E.C. 2023-E68.
The charts are made with StellaNavigator Ver.10 (AstroArts).
The magnitudes graphs are made with Comet for Windows.

---------------------------------------------------------------------

Copyright(C) Seiichi Yoshida (comet@aerith.net). All rights reserved.